Change the Weather History Date:

Thursday, December 27, 2012

  Actual Average (KBLF) Record (KBLF)
Temperature  
Mean Temperature 30 °F 35 °F  
Max Temperature 33 °F 43 °F 69 °F (2008)
Min Temperature 28 °F 27 °F 9 °F (1977)
Degree Days  
Heating Degree Days 34 30  
Month to date heating degree days 740  
Since 1 July heating degree days 1643  
Cooling Degree Days 0 0  
Month to date cooling degree days 0  
Year to date cooling degree days 853  
Moisture  
Dew Point 27 °F    
Average Humidity 84    
Maximum Humidity 93    
Minimum Humidity 75    
Precipitation  
Precipitation 0.00 in 0.08 in 0.81 in (1990)
Month to date precipitation 2.55  
Year to date precipitation 39.27  
Snow  
Snow 0.00 in - - ()
Month to date snowfall  
Since 1 July snowfall  
Snow Depth -    
Sea Level Pressure  
Sea Level Pressure 29.88 in    
Wind  
Wind Speed 20 mph (WNW)    
Max Wind Speed 30 mph    
Max Gust Speed 44 mph    
Visibility 10 miles    
Events      
T = Trace of Precipitation, MM = Missing Value Source: NWS Daily Summary

Daily Weather History Graph

Daily Weather History Graph

Search for Another Location

Airport or City:

Trip Planner

Search our weather history database for the weather conditions in past years. The results will help you decide how hot, cold, wet, or windy it might be!

Date:

Astronomy

Dec. 27, 2012 Rise Set
Actual Time 7:34 AM EST 5:14 PM EST
Civil Twilight 7:05 AM EST 5:43 PM EST
Nautical Twilight 6:33 AM EST 6:15 PM EST
Astronomical Twilight 6:01 AM EST 6:47 PM EST
Moon 4:55 PM EST (12/27) 6:45 AM EST (12/27)
Length of Visible Light 10h 37m
Length of Day
9h 39m
Full, 100% of the Moon is Illuminated
Dec 27
Full
Dec 28
Full
Jan 4
Last Quarter
Jan 11
New
Jan 18
First Quarter

Hourly Weather History & Observations

Time (EST) Temp. Windchill Dew Point Humidity Pressure Visibility Wind Dir Wind Speed Gust Speed Precip Events Conditions
12:15 AM 33.8 °F 20.8 °F 30.2 °F 87% 29.64 in 10.0 mi WNW 26.5 mph 39.1 mph N/A   Overcast
12:35 AM 33.8 °F 21.9 °F 30.2 °F 87% 29.65 in 10.0 mi WNW 21.9 mph 40.3 mph N/A   Overcast
12:55 AM 33.8 °F 21.9 °F 30.2 °F 87% 29.66 in 10.0 mi WNW 21.9 mph 40.3 mph N/A   Overcast
1:15 AM 33.8 °F 20.1 °F 30.2 °F 87% 29.67 in 10.0 mi WNW 29.9 mph 42.6 mph N/A   Overcast
1:35 AM 33.8 °F 21.0 °F 30.2 °F 87% 29.67 in 10.0 mi WNW 25.3 mph 36.8 mph N/A   Overcast
1:55 AM 33.8 °F 22.5 °F 28.4 °F 81% 29.68 in 10.0 mi WNW 19.6 mph 35.7 mph N/A   Overcast
2:15 AM 33.8 °F 22.2 °F 28.4 °F 81% 29.68 in 10.0 mi WNW 20.7 mph 41.4 mph N/A   Overcast
2:35 AM 33.8 °F 20.8 °F 28.4 °F 81% 29.69 in 10.0 mi WNW 26.5 mph 42.6 mph N/A   Overcast
2:55 AM 33.8 °F 22.8 °F 28.4 °F 81% 29.70 in 10.0 mi WNW 18.4 mph 40.3 mph N/A   Overcast
3:15 AM 32.0 °F 19.5 °F 28.4 °F 87% 29.71 in 10.0 mi WNW 21.9 mph 36.8 mph N/A   Overcast
3:35 AM 32.0 °F 19.5 °F 26.6 °F 80% 29.71 in 10.0 mi WNW 21.9 mph 31.1 mph N/A   Overcast
3:55 AM 32.0 °F 22.1 °F 26.6 °F 80% 29.72 in 10.0 mi WNW 13.8 mph 29.9 mph N/A   Overcast
4:15 AM 32.0 °F 18.4 °F 26.6 °F 80% 29.71 in 10.0 mi WNW 26.5 mph 41.4 mph N/A   Overcast
4:55 AM 32.0 °F 18.1 °F 26.6 °F 80% 29.73 in 10.0 mi WNW 27.6 mph 43.7 mph N/A   Overcast
5:15 AM 32.0 °F 18.9 °F 26.6 °F 80% 29.74 in 10.0 mi WNW 24.2 mph 40.3 mph N/A   Overcast
5:35 AM 30.2 °F 15.7 °F 26.6 °F 86% 29.75 in 10.0 mi WNW 27.6 mph 40.3 mph N/A   Overcast
5:55 AM 30.2 °F 17.4 °F 26.6 °F 86% 29.76 in 10.0 mi WNW 20.7 mph 34.5 mph N/A   Overcast
6:15 AM 30.2 °F 17.8 °F 26.6 °F 86% 29.78 in 10.0 mi WNW 19.6 mph 29.9 mph N/A   Overcast
6:35 AM 30.2 °F 17.1 °F 26.6 °F 86% 29.79 in 10.0 mi NW 21.9 mph 34.5 mph N/A   Overcast
6:55 AM 30.2 °F 20.2 °F 26.6 °F 86% 29.81 in 10.0 mi WNW 12.7 mph 32.2 mph N/A   Overcast
7:15 AM 30.2 °F 17.4 °F 26.6 °F 86% 29.82 in 10.0 mi WNW 20.7 mph 39.1 mph N/A   Overcast
7:35 AM 30.2 °F 16.2 °F 26.6 °F 86% 29.82 in 10.0 mi NW 25.3 mph 35.7 mph N/A   Overcast
7:55 AM 30.2 °F 16.2 °F 26.6 °F 86% 29.83 in 10.0 mi WNW 25.3 mph 33.4 mph N/A   Overcast
8:15 AM 30.2 °F 15.2 °F 26.6 °F 86% 29.83 in 10.0 mi NW 29.9 mph 39.1 mph N/A   Overcast
8:35 AM 30.2 °F 15.9 °F 26.6 °F 86% 29.83 in 10.0 mi WNW 26.5 mph 39.1 mph N/A   Overcast
8:55 AM 30.2 °F 15.4 °F 26.6 °F 86% 29.84 in 10.0 mi WNW 28.8 mph 41.4 mph N/A   Unknown
9:15 AM 30.2 °F 16.2 °F 26.6 °F 86% 29.84 in 10.0 mi WNW 25.3 mph 35.7 mph N/A   Overcast
9:35 AM 30.2 °F 16.2 °F 26.6 °F 86% 29.85 in 10.0 mi WNW 25.3 mph 36.8 mph N/A   Overcast
9:55 AM 30.2 °F 17.4 °F 26.6 °F 86% 29.86 in 10.0 mi WNW 20.7 mph 35.7 mph N/A   Overcast
10:15 AM 30.2 °F 18.5 °F 26.6 °F 86% 29.87 in 10.0 mi WNW 17.3 mph 29.9 mph N/A   Overcast
10:35 AM 32.0 °F 19.2 °F 26.6 °F 80% 29.88 in 10.0 mi NW 23.0 mph 36.8 mph N/A   Mostly Cloudy
10:55 AM 32.0 °F 20.8 °F 26.6 °F 80% 29.89 in 10.0 mi WNW 17.3 mph 25.3 mph N/A   Mostly Cloudy
11:15 AM 33.8 °F 23.5 °F 26.6 °F 75% 29.90 in 10.0 mi NW 16.1 mph 23.0 mph N/A   Overcast
11:35 AM 33.8 °F 23.9 °F 26.6 °F 75% 29.89 in 10.0 mi WNW 15.0 mph 31.1 mph N/A   Overcast
11:55 AM 33.8 °F 23.9 °F 28.4 °F 81% 29.90 in 10.0 mi West 15.0 mph 23.0 mph N/A   Overcast
12:15 PM 32.0 °F 20.1 °F 28.4 °F 87% 29.90 in 10.0 mi WNW 19.6 mph 27.6 mph N/A   Overcast
12:35 PM 33.8 °F 22.5 °F 28.4 °F 81% 29.91 in 10.0 mi WNW 19.6 mph 24.2 mph N/A   Overcast
12:55 PM 32.0 °F 19.8 °F 26.6 °F 80% 29.91 in 10.0 mi WNW 20.7 mph 28.8 mph N/A   Overcast
1:15 PM 32.0 °F 20.8 °F 26.6 °F 80% 29.92 in 10.0 mi WNW 17.3 mph 27.6 mph N/A   Overcast
1:35 PM 32.0 °F 22.5 °F 26.6 °F 80% 29.92 in 10.0 mi WNW 12.7 mph 26.5 mph N/A   Overcast
1:55 PM 32.0 °F 21.2 °F 26.6 °F 80% 29.92 in 10.0 mi WNW 16.1 mph 21.9 mph N/A   Overcast
2:15 PM 32.0 °F 21.2 °F 26.6 °F 80% 29.92 in 10.0 mi WNW 16.1 mph 21.9 mph N/A   Overcast
2:35 PM 32.0 °F 20.8 °F 26.6 °F 80% 29.92 in 10.0 mi WNW 17.3 mph 26.5 mph N/A   Mostly Cloudy
2:55 PM 32.0 °F 23.0 °F 26.6 °F 80% 29.93 in 10.0 mi WNW 11.5 mph 16.1 mph N/A   Mostly Cloudy
3:35 PM 32.0 °F 26.4 °F 26.6 °F 80% 29.96 in 10.0 mi WSW 5.8 mph 20.7 mph N/A   Overcast
3:55 PM 30.2 °F 21.9 °F 26.6 °F 86% 29.97 in 10.0 mi West 9.2 mph - N/A   Overcast
4:15 PM 30.2 °F 18.1 °F 26.6 °F 86% 29.98 in 10.0 mi WNW 18.4 mph 26.5 mph N/A   Overcast
4:35 PM 30.2 °F 19.3 °F 26.6 °F 86% 29.99 in 10.0 mi WNW 15.0 mph 23.0 mph N/A   Overcast
4:55 PM 30.2 °F 17.1 °F 26.6 °F 86% 29.98 in 10.0 mi WNW 21.9 mph 29.9 mph N/A   Overcast
5:15 PM 30.2 °F 19.8 °F 26.6 °F 86% 29.99 in 10.0 mi WNW 13.8 mph 23.0 mph N/A   Overcast
5:35 PM 30.2 °F 18.5 °F 26.6 °F 86% 30.00 in 10.0 mi WNW 17.3 mph 26.5 mph N/A   Overcast
5:55 PM 30.2 °F 18.9 °F 26.6 °F 86% 30.00 in 10.0 mi NW 16.1 mph 26.5 mph N/A   Overcast
6:15 PM 30.2 °F 18.1 °F 26.6 °F 86% 30.01 in 10.0 mi NW 18.4 mph 23.0 mph N/A   Overcast
6:35 PM 30.2 °F 19.8 °F 26.6 °F 86% 30.01 in 10.0 mi NW 13.8 mph - N/A   Overcast
6:55 PM 30.2 °F 19.8 °F 26.6 °F 86% 30.02 in 10.0 mi NW 13.8 mph - N/A   Overcast
7:15 PM 30.2 °F 18.9 °F 26.6 °F 86% 30.03 in 10.0 mi WNW 16.1 mph 23.0 mph N/A   Overcast
7:35 PM 30.2 °F 21.3 °F 26.6 °F 86% 30.03 in 10.0 mi NW 10.4 mph - N/A   Overcast
7:55 PM 28.4 °F 18.5 °F 26.6 °F 93% 30.03 in 10.0 mi WNW 11.5 mph - N/A   Overcast
8:15 PM 28.4 °F 20.4 °F 26.6 °F 93% 30.03 in 10.0 mi NW 8.1 mph - N/A   Overcast
8:35 PM 28.4 °F 17.5 °F 24.8 °F 86% 30.02 in 10.0 mi NW 13.8 mph 19.6 mph N/A   Mostly Cloudy
8:55 PM 28.4 °F 19.1 °F 24.8 °F 86% 30.02 in 10.0 mi NNW 10.4 mph - N/A   Overcast
9:15 PM 28.4 °F 20.4 °F 24.8 °F 86% 30.02 in 10.0 mi NW 8.1 mph - N/A   Mostly Cloudy
9:35 PM 28.4 °F 19.7 °F 24.8 °F 86% 30.02 in 10.0 mi NNW 9.2 mph - N/A   Mostly Cloudy
9:55 PM 28.4 °F 18.5 °F 24.8 °F 86% 30.03 in 10.0 mi NW 11.5 mph - N/A   Mostly Cloudy
10:15 PM 28.4 °F 18.0 °F 24.8 °F 86% 30.03 in 10.0 mi NW 12.7 mph - N/A   Mostly Cloudy
10:35 PM 28.4 °F 19.1 °F 24.8 °F 86% 30.04 in 10.0 mi NW 10.4 mph - N/A   Overcast
10:55 PM 28.4 °F 20.4 °F 24.8 °F 86% 30.04 in 10.0 mi NW 8.1 mph - N/A   Overcast
11:15 PM 28.4 °F 20.4 °F 24.8 °F 86% 30.05 in 10.0 mi WNW 8.1 mph - N/A   Overcast
11:35 PM 28.4 °F 21.2 °F 24.8 °F 86% 30.05 in 10.0 mi NW 6.9 mph - N/A   Overcast
11:55 PM 28.4 °F 19.1 °F 24.8 °F 86% 30.04 in 10.0 mi NW 10.4 mph - N/A   Overcast